Timeline UpdatesTrip UpdatesNews PostsPvt Posts♥♥Travel TipsAdmin PostsConv PostsFollowed PostsChat RequestsBlog PostsPNR Posts

Disclaimer
Search
 
 
Sat Nov 1, 2014 13:12:24 ISTHomeTrainsΣChainsAtlasPNRForumGalleryNewsFAQTripsMembersLoginFeedback
No Recent News for this Train
Other Trains in the News **new
Latest...
.
Sat Sep 13, 2014 (05:35PM)
⇐ Return Journey: Train# 58418

58417/Puri Gunupur Passenger (UnReserved)

Time-Table HAS CHANGED.
Sep 13 2014 (5:35PM)
Change Departure Station:
Change Arrival Station:
Post a Train Travel TipPost a Train Travel Tip **new
Post a Comment/Question/Picture/VideoPost a Comment/Question/Picture/Video
Pantry/Catering
✕ NO Pantry Car
✕ NO Catering
Loco/Rake Reversals
KUR/Khurda Road Junction (7);
RSA - Rake Sharing
Rake/Coach Composition
This train will run with 08 coaches i.e. Two Guard cum luggage vans, 05 General Second Class coaches and One Parcel Van.
Loco
News    PNR    Forum    Time-Table    Availability    Fare Chart    Map    Arr/Dep History    Trips    Gallery    ΣChains    X/O    Timeline    
Travel Time: 4h 10m    15 halts    Distance: 116 km    Avg Speed: 27 km/hr
Type: Passenger
Zone: ECoR/East Coast
Departs @ 16:00 (Avg 36m late)
Platform# 3
SMTWTFS
Palasa/PSA 
Arrives @ 20:10 (Avg 4m late)
Platform# ???
SMTWTFS
Gunupur/GNPR 

15 halts. 15 intermediate Stations between Palasa and Gunupur

Show ALL intermediate Stations  Show Old Time-Table

#TrkCodeStation NameX/OArrivesAvgDepartsAvgHaltPFDay#KmSpeedElevZoneAddress
1%==%PURIPuri (5)  -08:30 08:00+6--1-265.63712mECoRPuri, Odisha
2%==%MLTMalatipatpur (1)  08:42 08:12+908:44 08:13+92 1m11-258.33715mECoRPuri, Odisha
3%==%JKDPJankidaipur  08:48 08:18-08:49 08:19-1m--1-255.36013mECoRChandanpur, Odisha
4%==%SILSakhi Gopal (3)X  08:55 08:25+1108:56 08:26+111m--1-249.26710mECoRPuri, Odisha
5%==%BRSTBir Purushottampur  09:01 08:31+1509:02 08:32+151m--1-243.66712mECoRSatasankha, Odisha
6/==/JERD new halt!!  08:36-08:37-1m--1-239.226 ???
7%==/DEGDelang  09:13 08:43+1709:14 08:44+171m--1-236.6449mECoRKhordha, Odisha
8/==/KASRKanas Road  09:19 08:49-09:20 08:50-1m--1-233.0429mECoRKhordha, Odisha
9/==/MWQMotari Halt  09:25 08:55+2009:26 08:56+201m--1-229.54612mECoRMotari, Odisha
10/==/HPGMHaripur GramX  09:33 09:03-09:34 09:04-1m--1-224.11222mECoRKhordha, Odisha
11/==/KURKhurda Road Junction (7)X09:50 09:17+1610:10 09:35+2520 18m--1-221.55325mECoRKhordha, Odisha
12/==/ARGLArgul P.H.  10:16 09:41-10:17 09:42-1m--1-216.24024mECoRKhordha, Odisha
13/==/KPXRKaipadar Road  10:23 09:48+2310:24 09:49+241m--1-212.26822mECoRKaipada Road, Odisha
14/==/DLMHDhaulimuhanX  10:28 09:53-10:29 09:54-1m--1-207.74621mECoRKhordha, Odisha
15/==/TAPTapang  10:34 09:59+2510:35 10:00+261m--1-203.87215mECoRKhordha, Odisha
16/==/GLBAGolabai  10:39 10:04-10:40 10:05-1m--1-199.04813mECoRKhordha, Odisha
17/==/NKPNirakarpurX  10:45 10:10+2710:46 10:11+271m--1-195.07121mECoRNirakarpur, Odisha
18/==/BSDPBhusandpurX  10:52 10:17+2710:53 10:18+281m--1-187.96620mECoRBhushandapur, Odisha
19/==/MKTPMuketashwarX  10:58 10:23-10:59 10:24-1m--1-182.45213mECoRKhordha, Odisha
20/==/KAPGKalupara Ghat  11:04 10:29+2711:05 10:30+281m--1-178.16710mECoRChandeswar, Odisha
21/==/KUUKuhuri  11:11 10:36+3111:12 10:37+311m--1-171.46826mECoRKhordha, Odisha
22/==/GNGDGangadharpurX  11:19 10:44+3211:20 10:45+321m--1-163.46222mECoRKhordha, Odisha
23/==/SLZSolari  11:25 10:50+3311:26 10:51+331m--1-158.25218mECoRSolari, Odisha
24/==/BALUBalugaon (3)X  11:35 11:00+3011:40 11:05+325m--1-150.47211mECoR752030, Odisha
25/==/CLKAChilka  11:46 11:11+3611:47 11:12+381m--1-143.27725mECoRBarkul, Odisha
26/==/KLJIKalijai  11:51 11:16+3811:52 11:17+381m--1-138.03611mECoRGarh, Odisha
27/==/KITKhallikot (3)  11:57 11:25+3911:58 11:26+401m--1-133.27513mECoRKhallikot, Odisha
28/==/RBARambha  12:07 11:35+4212:08 11:36+441m--1-122.07414mECoRGanjam District, Odisha
29/==/HMAHummaX  12:17 11:45+4612:18 11:46+471m--1-110.97519mECoRGanjam District, Odisha
30/==/GAMGanjamO  12:23 11:51+5012:24 11:52+521m--1-104.7608mECoRGanjam, Odisha
31/==/CAPCChatrapur Court (2)  12:32 12:00-12:33 12:01-1m--1-96.71432mECoRChatrapur, Odisha
32/==/CAPChatrapur  12:37 12:05+4512:42 12:06+465 1m--1-95.83736mECoRChatrapur, Odisha
33/==/NRSPNarasimhapura  12:48 12:12-12:49 12:13-1m--1-92.110850mECoRGanjam, Odisha
34/==/JNPJagan NathapurX  12:54 12:18+5412:55 12:19+541m--1-83.14829mECoRBerhampur, Odisha
35/==/BAMBrahmapur (3)X  13:05 12:30+4413:15 12:35+4610 5m21-74.37127mECoRBerhampur, Odisha
36/==/GTAGolanthraX  13:24 12:44+1:0313:25 12:45+1:041m--1-63.75328mECoRGanjam, Odisha
37/==/SLRDSurla Road  13:31 12:51+1:0513:33 12:52+1:062 1m--1-58.35118mECoRGanjam, Odisha
38/==/IPMIchchapuram  13:41 13:02+1:1113:42 13:03+1:111m--1-49.97921mECoRIchchapuram, Andhra Pradesh
39/==/JPIJhadupudi  13:51 13:12+1:0813:52 13:13+1:081m--1-38.17538mECoRSrikakulam, Andhra Pradesh
40/==/SPTSompeta (4)  13:57 13:18+5513:58 13:19+1:041m--1-31.97148mECoRKanchili, Andhra Pradesh
41/==/BAVBaruva  14:07 13:27+1:2214:08 13:28+1:261m--1-22.58117mECoRSrikakulam, Andhra Pradesh
42/==/MMSMandasa Road  14:15 13:35+1:4314:16 13:36+1:511m--1-13.16538mECoRSrikakulam, Andhra Pradesh
43/==/SUDVSummadeviX  14:23 13:42+1:3514:24 13:43+1:351m--1-6.5558mECoRSummadevi, Andhra Pradesh
44/==/PSAPalasa (3)»XO  15:25 15:10+3916:00+3635 50m310.06131mECoRKasibugga, Andhra Pradesh
45/==/PUNPundiX  16:12+3316:14+332m--112.25438mECoRSrikakulam, Andhra Pradesh
46/==/RMZRouthpuram HaltX  16:21-16:22-1m--118.63312mECoRSrikakulam, Andhra Pradesh
47/==/NWPNaupada Junction  16:35+2916:45 17:10+1710 35m--125.83913mECoRNuapada . ph.no. 08945-249728, Andhra Pradesh
48|--|TEKTekkali Halt  16:55 17:20-16:56 17:21-1m--132.33436mECoRTekkali, Andhra Pradesh
49|--|PDSNPeddasana  17:05 17:30-17:06 17:31-1m--137.44226mECoRNational Highway 5, Andhra Pradesh
50|--|TMBTemburu  17:19 17:44-17:20 17:45-1m--146.53276mECoRParalakhemundi, Andhra Pradesh
51|--|GVAGanguwada  17:28 17:53-17:29 17:54-1m--150.84578mECoRGanguwada, Andhra Pradesh
52|--|PHMPatapatnam  17:43 18:07-17:44 18:08-1m--160.62268mECoRSrikakulam District, Andhra Pradesh
53|--|PLHParlakhemundi (1)  18:00 18:20-18:02 18:22-2m1165.04460mECoRParalakhemundi, Odisha
54|--|SPRMSitapuram Halt  18:22 18:39-18:23 18:40-1m--177.53258mECoRParalakhemundi, Odisha
55|--|HBFHadobhangi Halt  18:31 18:48-18:32 18:49-1m--181.83968mECoRParalakhemundi, Odisha
56|--|KNGRKashinagar Halt  18:45 19:02-18:46 19:03-1m--190.23762mECoRKashinagar, Odisha
57|--|LRILihuri Halt  18:57 19:14-18:58 19:15-1m--197.03969mECoRAcross River Vamsadhara, Odisha
58|--|BSDRBansadhara Halt  19:09 19:26-19:10 19:27-1m--1104.13678mECoRBansadhara Halt Railway Station, Odisha
59|--|PLSGPalasingi  19:19 19:36-19:20 19:37-1m--1109.41287mECoRDistt Gajapati, Odisha
60|--|GNPRGunupur•  19:45 20:10+4---1115.8-92mECoRGunupur, Odisha
Scroll to Top
Scroll to Bottom